Year,Month,Day,Hour,Minute,Value (Times are PST for windspeed in km/hr)
2017,05,26,00,00,4.20
2017,05,26,00,01,3.30
2017,05,26,00,02,2.20
2017,05,26,00,03,0.10
2017,05,26,00,04,0.80
2017,05,26,00,05,1.00
2017,05,26,00,06,2.50
2017,05,26,00,07,0.40
2017,05,26,00,08,1.00
2017,05,26,00,09,2.50
2017,05,26,00,10,1.60
2017,05,26,00,11,1.40
2017,05,26,00,12,0.70
2017,05,26,00,13,0.20
2017,05,26,00,14,0.00
2017,05,26,00,15,0.00
2017,05,26,00,16,0.30
2017,05,26,00,17,0.80
2017,05,26,00,18,0.10
2017,05,26,00,19,0.00
2017,05,26,00,20,0.00
2017,05,26,00,21,0.00
2017,05,26,00,22,0.50
2017,05,26,00,23,0.50
2017,05,26,00,24,0.00
2017,05,26,00,25,0.00
2017,05,26,00,26,0.00
2017,05,26,00,27,0.00
2017,05,26,00,28,0.00
2017,05,26,00,29,0.00
2017,05,26,00,30,0.20
2017,05,26,00,31,0.00
2017,05,26,00,32,0.00
2017,05,26,00,33,0.00
2017,05,26,00,34,0.10
2017,05,26,00,35,0.00
2017,05,26,00,36,0.00
2017,05,26,00,37,0.10
2017,05,26,00,38,0.00
2017,05,26,00,39,0.00
2017,05,26,00,40,0.00
2017,05,26,00,41,0.00
2017,05,26,00,42,0.00
2017,05,26,00,43,0.00
2017,05,26,00,44,0.00
2017,05,26,00,45,0.80
2017,05,26,00,46,0.40
2017,05,26,00,47,0.20
2017,05,26,00,48,1.00
2017,05,26,00,49,0.00
2017,05,26,00,50,0.10
2017,05,26,00,51,0.00
2017,05,26,00,52,0.00
2017,05,26,00,53,0.00
2017,05,26,00,54,0.00
2017,05,26,00,55,0.00
2017,05,26,00,56,0.20
2017,05,26,00,57,0.60
2017,05,26,00,58,0.00
2017,05,26,00,59,0.80
2017,05,26,01,00,0.00
2017,05,26,01,01,2.30
2017,05,26,01,02,2.20
2017,05,26,01,03,2.60
2017,05,26,01,04,0.80
2017,05,26,01,05,1.40
2017,05,26,01,06,0.30
2017,05,26,01,07,1.40
2017,05,26,01,08,2.10
2017,05,26,01,09,0.00
2017,05,26,01,10,0.00
2017,05,26,01,11,0.00
2017,05,26,01,12,0.10
2017,05,26,01,13,0.40
2017,05,26,01,14,0.20
2017,05,26,01,15,0.30
2017,05,26,01,16,0.00
2017,05,26,01,17,1.00
2017,05,26,01,18,1.10
2017,05,26,01,19,1.00
2017,05,26,01,20,2.40
2017,05,26,01,21,2.50
2017,05,26,01,22,3.10
2017,05,26,01,23,1.00
2017,05,26,01,24,0.60
2017,05,26,01,25,0.30
2017,05,26,01,26,2.20
2017,05,26,01,27,0.80
2017,05,26,01,28,0.20
2017,05,26,01,29,0.90
2017,05,26,01,30,0.10
2017,05,26,01,31,0.20
2017,05,26,01,32,0.10
2017,05,26,01,33,3.30
2017,05,26,01,34,2.70
2017,05,26,01,35,0.20
2017,05,26,01,36,0.30
2017,05,26,01,37,1.50
2017,05,26,01,38,2.00
2017,05,26,01,39,0.20
2017,05,26,01,40,0.50
2017,05,26,01,41,0.20
2017,05,26,01,42,0.10
2017,05,26,01,43,0.60
2017,05,26,01,44,1.40
2017,05,26,01,45,0.30
2017,05,26,01,46,0.00
2017,05,26,01,47,1.00
2017,05,26,01,48,0.20
2017,05,26,01,49,0.20
2017,05,26,01,50,0.10
2017,05,26,01,51,0.00
2017,05,26,01,52,0.10
2017,05,26,01,53,0.00
2017,05,26,01,54,0.00
2017,05,26,01,55,0.00
2017,05,26,01,56,0.00
2017,05,26,01,57,0.00
2017,05,26,01,58,0.00
2017,05,26,01,59,0.00
2017,05,26,02,00,0.00
2017,05,26,02,01,0.00
2017,05,26,02,02,0.40
2017,05,26,02,03,0.60
2017,05,26,02,04,2.40
2017,05,26,02,05,1.40
2017,05,26,02,06,0.00
2017,05,26,02,07,0.90
2017,05,26,02,08,1.10
2017,05,26,02,09,0.40
2017,05,26,02,10,0.00
2017,05,26,02,11,0.00
2017,05,26,02,12,0.20
2017,05,26,02,13,0.00
2017,05,26,02,14,0.00
2017,05,26,02,15,0.00
2017,05,26,02,16,0.00
2017,05,26,02,17,0.00
2017,05,26,02,18,0.60
2017,05,26,02,19,0.10
2017,05,26,02,20,0.00
2017,05,26,02,21,0.00
2017,05,26,02,22,0.20
2017,05,26,02,23,0.40
2017,05,26,02,24,0.30
2017,05,26,02,25,0.00
2017,05,26,02,26,0.00
2017,05,26,02,27,1.30
2017,05,26,02,28,0.40
2017,05,26,02,29,0.10
2017,05,26,02,30,0.00
2017,05,26,02,31,0.00
2017,05,26,02,32,0.00
2017,05,26,02,33,0.00
2017,05,26,02,34,0.70
2017,05,26,02,35,0.60
2017,05,26,02,36,0.30
2017,05,26,02,37,0.60
2017,05,26,02,38,1.40
2017,05,26,02,39,2.20
2017,05,26,02,40,0.00
2017,05,26,02,41,0.00
2017,05,26,02,42,0.00
2017,05,26,02,43,0.60
2017,05,26,02,44,2.70
2017,05,26,02,45,3.30
2017,05,26,02,46,2.70
2017,05,26,02,47,0.80
2017,05,26,02,48,1.40
2017,05,26,02,49,3.10
2017,05,26,02,50,3.90
2017,05,26,02,51,1.30
2017,05,26,02,52,2.30
2017,05,26,02,53,1.50
2017,05,26,02,54,1.90
2017,05,26,02,55,0.80
2017,05,26,02,56,0.00
2017,05,26,02,57,0.00
2017,05,26,02,58,0.20
2017,05,26,02,59,2.70
2017,05,26,03,00,3.50
2017,05,26,03,01,2.40
2017,05,26,03,02,2.00
2017,05,26,03,03,1.50
2017,05,26,03,04,2.70
2017,05,26,03,05,0.20
2017,05,26,03,06,2.10
2017,05,26,03,07,3.10
2017,05,26,03,08,2.80
2017,05,26,03,09,4.00
2017,05,26,03,10,3.80
2017,05,26,03,11,5.50
2017,05,26,03,12,5.10
2017,05,26,03,13,2.60
2017,05,26,03,14,2.70
2017,05,26,03,15,2.10
2017,05,26,03,16,1.00
2017,05,26,03,17,0.70
2017,05,26,03,18,0.20
2017,05,26,03,19,0.10
2017,05,26,03,20,0.00
2017,05,26,03,21,0.20
2017,05,26,03,22,0.00
2017,05,26,03,23,0.00
2017,05,26,03,24,0.10
2017,05,26,03,25,0.00
2017,05,26,03,26,0.80
2017,05,26,03,27,1.00
2017,05,26,03,28,0.20
2017,05,26,03,29,0.10
2017,05,26,03,30,0.00
2017,05,26,03,31,0.30
2017,05,26,03,32,1.90
2017,05,26,03,33,1.00
2017,05,26,03,34,0.10
2017,05,26,03,35,0.60
2017,05,26,03,36,0.70
2017,05,26,03,37,0.00
2017,05,26,03,38,0.00
2017,05,26,03,39,0.20
2017,05,26,03,40,0.00
2017,05,26,03,41,0.20
2017,05,26,03,42,0.70
2017,05,26,03,43,0.30
2017,05,26,03,44,0.80
2017,05,26,03,45,0.00
2017,05,26,03,46,1.40
2017,05,26,03,47,2.20
2017,05,26,03,48,4.10
2017,05,26,03,49,2.60
2017,05,26,03,50,2.70
2017,05,26,03,51,1.90
2017,05,26,03,52,0.50
2017,05,26,03,53,1.00
2017,05,26,03,54,1.00
2017,05,26,03,55,0.40
2017,05,26,03,56,0.00
2017,05,26,03,57,0.00
2017,05,26,03,58,0.00
2017,05,26,03,59,0.00
2017,05,26,04,00,0.10
2017,05,26,04,01,0.00
2017,05,26,04,02,0.00
2017,05,26,04,03,0.20
2017,05,26,04,04,2.60
2017,05,26,04,05,3.80
2017,05,26,04,06,3.30
2017,05,26,04,07,2.00
2017,05,26,04,08,0.00
2017,05,26,04,09,1.10
2017,05,26,04,10,2.10
2017,05,26,04,11,1.40
2017,05,26,04,12,0.90
2017,05,26,04,13,2.10
2017,05,26,04,14,0.20
2017,05,26,04,15,0.50
2017,05,26,04,16,0.60
2017,05,26,04,17,0.00
2017,05,26,04,18,0.30
2017,05,26,04,19,1.50
2017,05,26,04,20,0.20
2017,05,26,04,21,3.30
2017,05,26,04,22,4.00
2017,05,26,04,23,2.40
2017,05,26,04,24,2.90
2017,05,26,04,25,1.90
2017,05,26,04,26,2.40
2017,05,26,04,27,2.50
2017,05,26,04,28,2.40
2017,05,26,04,29,3.00
2017,05,26,04,30,3.60
2017,05,26,04,31,3.10
2017,05,26,04,32,3.50
2017,05,26,04,33,3.90
2017,05,26,04,34,4.50
2017,05,26,04,35,5.10
2017,05,26,04,36,5.40
2017,05,26,04,37,5.30
2017,05,26,04,38,4.50
2017,05,26,04,39,4.10
2017,05,26,04,40,1.50
2017,05,26,04,41,3.10
2017,05,26,04,42,4.80
2017,05,26,04,43,3.20
2017,05,26,04,44,3.40
2017,05,26,04,45,2.70
2017,05,26,04,46,1.90
2017,05,26,04,47,3.70
2017,05,26,04,48,1.20
2017,05,26,04,49,2.60
2017,05,26,04,50,2.10
2017,05,26,04,51,1.70
2017,05,26,04,52,2.60
2017,05,26,04,53,2.50
2017,05,26,04,54,0.20
2017,05,26,04,55,0.20
2017,05,26,04,56,0.00
2017,05,26,04,57,1.90
2017,05,26,04,58,0.40
2017,05,26,04,59,2.20
2017,05,26,05,00,4.20
2017,05,26,05,01,3.20
2017,05,26,05,02,0.30
2017,05,26,05,03,1.70
2017,05,26,05,04,3.60
2017,05,26,05,05,1.60
2017,05,26,05,06,1.30
2017,05,26,05,07,0.20
2017,05,26,05,08,0.10
2017,05,26,05,09,1.50
2017,05,26,05,10,3.90
2017,05,26,05,11,3.40
2017,05,26,05,12,4.60
2017,05,26,05,13,4.60
2017,05,26,05,14,3.70
2017,05,26,05,15,1.90
2017,05,26,05,16,0.80
2017,05,26,05,17,1.70
2017,05,26,05,18,0.40
2017,05,26,05,19,0.00
2017,05,26,05,20,0.00
2017,05,26,05,21,0.60
2017,05,26,05,22,1.50
2017,05,26,05,23,2.50
2017,05,26,05,24,4.00
2017,05,26,05,25,4.00
2017,05,26,05,26,5.10
2017,05,26,05,27,5.40
2017,05,26,05,28,5.90
2017,05,26,05,29,5.10
2017,05,26,05,30,4.80
2017,05,26,05,31,3.90
2017,05,26,05,32,3.70
2017,05,26,05,33,4.10
2017,05,26,05,34,3.30
2017,05,26,05,35,4.00
2017,05,26,05,36,5.90
2017,05,26,05,37,4.10
2017,05,26,05,38,3.70
2017,05,26,05,39,3.40
2017,05,26,05,40,3.10
2017,05,26,05,41,2.80
2017,05,26,05,42,2.90
2017,05,26,05,43,4.10
2017,05,26,05,44,4.50
2017,05,26,05,45,3.50
2017,05,26,05,46,3.70
2017,05,26,05,47,2.70
2017,05,26,05,48,3.50
2017,05,26,05,49,4.10
2017,05,26,05,50,2.40
2017,05,26,05,51,1.20
2017,05,26,05,52,2.90
2017,05,26,05,53,4.10
2017,05,26,05,54,5.40
2017,05,26,05,55,4.90
2017,05,26,05,56,6.00
2017,05,26,05,57,5.20
2017,05,26,05,58,5.30
2017,05,26,05,59,4.70
2017,05,26,06,00,4.90
2017,05,26,06,01,3.90
2017,05,26,06,02,3.80
2017,05,26,06,03,5.80
2017,05,26,06,04,6.10
2017,05,26,06,05,5.00
2017,05,26,06,06,5.60
2017,05,26,06,07,5.60
2017,05,26,06,08,6.00
2017,05,26,06,09,5.10
2017,05,26,06,10,5.20
2017,05,26,06,11,6.30
2017,05,26,06,12,4.70
2017,05,26,06,13,4.20
2017,05,26,06,14,4.70
2017,05,26,06,15,4.50
2017,05,26,06,16,3.90
2017,05,26,06,17,5.20
2017,05,26,06,18,4.40
2017,05,26,06,19,4.70
2017,05,26,06,20,4.50
2017,05,26,06,21,6.60
2017,05,26,06,22,6.10
2017,05,26,06,23,4.70
2017,05,26,06,24,6.80
2017,05,26,06,25,6.00
2017,05,26,06,26,5.40
2017,05,26,06,27,4.80
2017,05,26,06,28,4.20
2017,05,26,06,29,4.70
2017,05,26,06,30,4.30
2017,05,26,06,31,3.50
2017,05,26,06,32,5.50
2017,05,26,06,33,4.80
2017,05,26,06,34,2.90
2017,05,26,06,35,4.00
2017,05,26,06,36,3.70
2017,05,26,06,37,2.20
2017,05,26,06,38,3.70
2017,05,26,06,39,5.00
2017,05,26,06,40,5.00
2017,05,26,06,41,4.80
2017,05,26,06,42,3.80
2017,05,26,06,43,1.70
2017,05,26,06,44,2.90
2017,05,26,06,45,2.60
2017,05,26,06,46,1.90
2017,05,26,06,47,3.10
2017,05,26,06,48,2.10
2017,05,26,06,49,3.60
2017,05,26,06,50,2.90
2017,05,26,06,51,3.10
2017,05,26,06,52,3.30
2017,05,26,06,53,3.30
2017,05,26,06,54,4.30
2017,05,26,06,55,2.50
2017,05,26,06,56,2.40
2017,05,26,06,57,2.60
2017,05,26,06,58,3.30
2017,05,26,06,59,2.00
2017,05,26,07,00,1.70
2017,05,26,07,01,3.70
2017,05,26,07,02,3.90
2017,05,26,07,03,5.00
2017,05,26,07,04,6.00
2017,05,26,07,05,5.10
2017,05,26,07,06,3.50
2017,05,26,07,07,3.50
2017,05,26,07,08,6.60
2017,05,26,07,09,8.00
2017,05,26,07,10,6.80
2017,05,26,07,11,4.00
2017,05,26,07,12,5.40
2017,05,26,07,13,3.30
2017,05,26,07,14,4.20
2017,05,26,07,15,5.30
2017,05,26,07,16,4.30
2017,05,26,07,17,4.80
2017,05,26,07,18,4.10
2017,05,26,07,19,3.50
2017,05,26,07,20,3.00
2017,05,26,07,21,2.50
2017,05,26,07,22,6.50
2017,05,26,07,23,4.70
2017,05,26,07,24,3.90
2017,05,26,07,25,5.30
2017,05,26,07,26,5.50
2017,05,26,07,27,5.00
2017,05,26,07,28,5.10
2017,05,26,07,29,4.10
2017,05,26,07,30,1.80
2017,05,26,07,31,2.50
2017,05,26,07,32,3.50
2017,05,26,07,33,6.30
2017,05,26,07,34,4.40
2017,05,26,07,35,6.30
2017,05,26,07,36,7.40
2017,05,26,07,37,4.70
2017,05,26,07,38,5.10
2017,05,26,07,39,6.20
2017,05,26,07,40,5.30
2017,05,26,07,41,6.70
2017,05,26,07,42,5.10
2017,05,26,07,43,5.70
2017,05,26,07,44,4.40
2017,05,26,07,45,3.50
2017,05,26,07,46,4.40
2017,05,26,07,47,5.10
2017,05,26,07,48,3.90
2017,05,26,07,49,5.10
2017,05,26,07,50,4.00
2017,05,26,07,51,5.00
2017,05,26,07,52,9.40
2017,05,26,07,53,5.80
2017,05,26,07,54,8.40
2017,05,26,07,55,5.10
2017,05,26,07,56,6.60
2017,05,26,07,57,5.10
2017,05,26,07,58,5.00
2017,05,26,07,59,5.70
2017,05,26,08,00,3.50
2017,05,26,08,01,5.00
2017,05,26,08,02,5.70
2017,05,26,08,03,4.40
2017,05,26,08,04,5.10
2017,05,26,08,05,7.40
2017,05,26,08,06,7.70
2017,05,26,08,07,7.80
2017,05,26,08,08,6.70
2017,05,26,08,09,7.30
2017,05,26,08,10,6.50
2017,05,26,08,11,5.60
2017,05,26,08,12,8.70
2017,05,26,08,13,9.00
2017,05,26,08,14,6.40
2017,05,26,08,15,6.40
2017,05,26,08,16,7.40
2017,05,26,08,17,5.00
2017,05,26,08,18,7.00
2017,05,26,08,19,8.20
2017,05,26,08,20,8.10
2017,05,26,08,21,5.70
2017,05,26,08,22,6.10
2017,05,26,08,23,6.40
2017,05,26,08,24,6.00
2017,05,26,08,25,5.10
2017,05,26,08,26,7.70
2017,05,26,08,27,7.80
2017,05,26,08,28,3.30
2017,05,26,08,29,3.70
2017,05,26,08,30,7.40
2017,05,26,08,31,10.40
2017,05,26,08,32,10.00
2017,05,26,08,33,10.70
2017,05,26,08,34,6.60
2017,05,26,08,35,8.50
2017,05,26,08,36,8.70
2017,05,26,08,37,6.20
2017,05,26,08,38,8.90
2017,05,26,08,39,7.80
2017,05,26,08,40,7.50
2017,05,26,08,41,8.10
2017,05,26,08,42,7.70
2017,05,26,08,43,6.30
2017,05,26,08,44,8.90
2017,05,26,08,45,4.90
2017,05,26,08,46,5.70
2017,05,26,08,47,8.60
2017,05,26,08,48,5.70
2017,05,26,08,49,6.40
2017,05,26,08,50,4.10
2017,05,26,08,51,6.50
2017,05,26,08,52,7.80
2017,05,26,08,53,4.50
2017,05,26,08,54,8.70
2017,05,26,08,55,8.10
2017,05,26,08,56,5.40
2017,05,26,08,57,6.80
2017,05,26,08,58,7.40
2017,05,26,08,59,7.90
2017,05,26,09,00,7.60
2017,05,26,09,01,7.60
2017,05,26,09,02,8.40
2017,05,26,09,03,7.10
2017,05,26,09,04,6.20
2017,05,26,09,05,6.30
2017,05,26,09,06,5.00
2017,05,26,09,07,4.90
2017,05,26,09,08,4.10
2017,05,26,09,09,3.10
2017,05,26,09,10,5.10
2017,05,26,09,11,7.70
2017,05,26,09,12,6.80
2017,05,26,09,13,9.20
2017,05,26,09,14,6.70
2017,05,26,09,15,9.20
2017,05,26,09,16,9.70
2017,05,26,09,17,5.90
2017,05,26,09,18,6.80
2017,05,26,09,19,5.60
2017,05,26,09,20,8.50
2017,05,26,09,21,7.40
2017,05,26,09,22,6.80
2017,05,26,09,23,7.40
2017,05,26,09,24,5.80
2017,05,26,09,25,5.50
2017,05,26,09,26,5.10
2017,05,26,09,27,3.90
2017,05,26,09,28,2.70
2017,05,26,09,29,3.50
2017,05,26,09,30,5.70
2017,05,26,09,31,6.20
2017,05,26,09,32,3.70
2017,05,26,09,33,3.30
2017,05,26,09,34,6.40
2017,05,26,09,35,8.10
2017,05,26,09,36,8.40
2017,05,26,09,37,5.40
2017,05,26,09,38,7.40
2017,05,26,09,39,7.10
2017,05,26,09,40,6.20
2017,05,26,09,41,4.90
2017,05,26,09,42,5.80
2017,05,26,09,43,5.50
2017,05,26,09,44,5.60
2017,05,26,09,45,6.20
2017,05,26,09,46,7.30
2017,05,26,09,47,6.10
2017,05,26,09,48,4.40
2017,05,26,09,49,6.20
2017,05,26,09,50,7.00
2017,05,26,09,51,2.90
2017,05,26,09,52,5.30
2017,05,26,09,53,7.50
2017,05,26,09,54,4.50
2017,05,26,09,55,3.10
2017,05,26,09,56,6.80
2017,05,26,09,57,6.30
2017,05,26,09,58,7.40
2017,05,26,09,59,5.40
2017,05,26,10,00,6.80
2017,05,26,10,01,3.60
2017,05,26,10,02,6.10
2017,05,26,10,03,5.80
2017,05,26,10,04,2.40
2017,05,26,10,05,5.90
2017,05,26,10,06,6.20
2017,05,26,10,07,6.80
2017,05,26,10,08,8.10
2017,05,26,10,09,7.30
2017,05,26,10,10,5.20
2017,05,26,10,11,3.50
2017,05,26,10,12,4.50
2017,05,26,10,13,4.80
2017,05,26,10,14,5.20
2017,05,26,10,15,7.10
2017,05,26,10,16,6.00
2017,05,26,10,17,4.40
2017,05,26,10,18,3.70
2017,05,26,10,19,5.70
2017,05,26,10,20,5.80
2017,05,26,10,21,5.10
2017,05,26,10,22,5.30
2017,05,26,10,23,6.60
2017,05,26,10,24,7.30
2017,05,26,10,25,4.70
2017,05,26,10,26,5.30
2017,05,26,10,27,4.40
2017,05,26,10,28,6.40
2017,05,26,10,29,6.40
2017,05,26,10,30,5.50
2017,05,26,10,31,8.00
2017,05,26,10,32,7.00
2017,05,26,10,33,4.80
2017,05,26,10,34,3.90
2017,05,26,10,35,6.40
2017,05,26,10,36,6.20
2017,05,26,10,37,6.40
2017,05,26,10,38,6.00
2017,05,26,10,39,5.40
2017,05,26,10,40,3.60
2017,05,26,10,41,7.10
2017,05,26,10,42,4.10
2017,05,26,10,43,8.20
2017,05,26,10,44,5.00
2017,05,26,10,45,2.30
2017,05,26,10,46,3.90
2017,05,26,10,47,2.20
2017,05,26,10,48,3.60
2017,05,26,10,49,2.30
2017,05,26,10,50,4.30
2017,05,26,10,51,4.80
2017,05,26,10,52,5.80
2017,05,26,10,53,0.60
2017,05,26,10,54,7.40
2017,05,26,10,55,5.60
2017,05,26,10,56,4.40
2017,05,26,10,57,4.20
2017,05,26,10,58,3.10
2017,05,26,10,59,4.30
2017,05,26,11,00,5.30
2017,05,26,11,01,7.20
2017,05,26,11,02,5.60
2017,05,26,11,03,2.50
2017,05,26,11,04,5.30
2017,05,26,11,05,7.00
2017,05,26,11,06,1.50
2017,05,26,11,07,4.40
2017,05,26,11,08,4.60
2017,05,26,11,09,1.60
2017,05,26,11,10,3.60
2017,05,26,11,11,4.50
2017,05,26,11,12,5.60
2017,05,26,11,13,6.40
2017,05,26,11,14,4.20
2017,05,26,11,15,4.30
2017,05,26,11,16,6.90
2017,05,26,11,17,4.70
2017,05,26,11,18,5.40
2017,05,26,11,19,7.40
2017,05,26,11,20,5.60
2017,05,26,11,21,5.40
2017,05,26,11,22,7.50
2017,05,26,11,23,4.80
2017,05,26,11,24,4.30
2017,05,26,11,25,7.00
2017,05,26,11,26,7.40
2017,05,26,11,27,5.60
2017,05,26,11,28,6.10
2017,05,26,11,29,8.00
2017,05,26,11,30,7.80
2017,05,26,11,31,6.60
2017,05,26,11,32,4.60
2017,05,26,11,33,4.80
2017,05,26,11,34,3.30
2017,05,26,11,35,3.50
2017,05,26,11,36,6.10
2017,05,26,11,37,8.40
2017,05,26,11,38,7.50
2017,05,26,11,39,7.40
2017,05,26,11,40,2.70
2017,05,26,11,41,8.00
2017,05,26,11,42,6.40
2017,05,26,11,43,7.20
2017,05,26,11,44,7.70
2017,05,26,11,45,6.40
2017,05,26,11,46,4.40
2017,05,26,11,47,7.00
2017,05,26,11,48,7.50
2017,05,26,11,49,4.90
2017,05,26,11,50,2.80
2017,05,26,11,51,5.00
2017,05,26,11,52,8.40
2017,05,26,11,53,7.40
2017,05,26,11,54,4.00
2017,05,26,11,55,9.60
2017,05,26,11,56,6.20
2017,05,26,11,57,6.40
2017,05,26,11,58,5.70
2017,05,26,11,59,8.70
2017,05,26,12,00,8.50
2017,05,26,12,01,9.50
2017,05,26,12,02,7.90
2017,05,26,12,03,4.30
2017,05,26,12,04,6.20
2017,05,26,12,05,8.10
2017,05,26,12,06,6.50
2017,05,26,12,07,6.40
2017,05,26,12,08,7.10
2017,05,26,12,09,8.80
2017,05,26,12,10,10.60
2017,05,26,12,11,6.50
2017,05,26,12,12,8.10
2017,05,26,12,13,5.90
2017,05,26,12,14,7.60
2017,05,26,12,15,8.10
2017,05,26,12,16,8.70
2017,05,26,12,17,6.60
2017,05,26,12,18,5.10
2017,05,26,12,19,4.70
2017,05,26,12,20,5.60
2017,05,26,12,21,6.40
2017,05,26,12,22,6.70
2017,05,26,12,23,8.80
2017,05,26,12,24,10.30
2017,05,26,12,25,6.30
2017,05,26,12,26,6.40
2017,05,26,12,27,4.80
2017,05,26,12,28,5.60
2017,05,26,12,29,7.90
2017,05,26,12,30,6.70
2017,05,26,12,31,6.30
2017,05,26,12,32,6.10
2017,05,26,12,33,10.10
2017,05,26,12,34,8.70
2017,05,26,12,35,6.70
2017,05,26,12,36,7.90
2017,05,26,12,37,3.40
2017,05,26,12,38,5.40
2017,05,26,12,39,9.10
2017,05,26,12,40,9.40
2017,05,26,12,41,8.90
2017,05,26,12,42,9.50
2017,05,26,12,43,9.40
2017,05,26,12,44,7.90
2017,05,26,12,45,4.30
2017,05,26,12,46,6.20
2017,05,26,12,47,4.70
2017,05,26,12,48,5.50
2017,05,26,12,49,7.70
2017,05,26,12,50,5.80
2017,05,26,12,51,5.20
2017,05,26,12,52,8.70
2017,05,26,12,53,6.70
2017,05,26,12,54,7.70
2017,05,26,12,55,6.00
2017,05,26,12,56,4.90
2017,05,26,12,57,7.00
2017,05,26,12,58,4.40
2017,05,26,12,59,8.00
2017,05,26,13,00,4.70
2017,05,26,13,01,5.50
2017,05,26,13,02,7.00
2017,05,26,13,03,4.80
2017,05,26,13,04,6.00
2017,05,26,13,05,4.00
2017,05,26,13,06,6.90
2017,05,26,13,07,7.60
2017,05,26,13,08,3.60
2017,05,26,13,09,6.20
2017,05,26,13,10,7.10
2017,05,26,13,11,4.30
2017,05,26,13,12,7.00
2017,05,26,13,13,7.20
2017,05,26,13,14,6.50
2017,05,26,13,15,5.30
2017,05,26,13,16,2.70
2017,05,26,13,17,4.70
2017,05,26,13,18,7.20
2017,05,26,13,19,7.30
2017,05,26,13,20,6.70
2017,05,26,13,21,6.80
2017,05,26,13,22,6.20
2017,05,26,13,23,2.30
2017,05,26,13,24,4.50
2017,05,26,13,25,5.00
2017,05,26,13,26,6.70
2017,05,26,13,27,5.40
2017,05,26,13,28,4.70
2017,05,26,13,29,5.60
2017,05,26,13,30,5.90
2017,05,26,13,31,4.90
2017,05,26,13,32,5.30
2017,05,26,13,33,5.00
2017,05,26,13,34,6.10
2017,05,26,13,35,5.20
2017,05,26,13,36,1.90
2017,05,26,13,37,4.30
2017,05,26,13,38,7.90
2017,05,26,13,39,5.70
2017,05,26,13,40,3.90
2017,05,26,13,41,4.10
2017,05,26,13,42,8.00
2017,05,26,13,43,5.70
2017,05,26,13,44,6.00
2017,05,26,13,45,3.50
2017,05,26,13,46,5.60
2017,05,26,13,47,5.80
2017,05,26,13,48,5.40
2017,05,26,13,49,1.60
2017,05,26,13,50,4.40
2017,05,26,13,51,6.30
2017,05,26,13,52,4.20
2017,05,26,13,53,1.50
2017,05,26,13,54,2.90
2017,05,26,13,55,6.60
2017,05,26,13,56,6.30
2017,05,26,13,57,2.40
2017,05,26,13,58,5.60
2017,05,26,13,59,5.80
2017,05,26,14,00,4.30
2017,05,26,14,01,3.90
2017,05,26,14,02,6.20
2017,05,26,14,03,6.90
2017,05,26,14,04,4.40
2017,05,26,14,05,6.50
2017,05,26,14,06,5.70
2017,05,26,14,07,1.90
2017,05,26,14,08,1.90
2017,05,26,14,09,4.60
2017,05,26,14,10,5.30
2017,05,26,14,11,3.90
2017,05,26,14,12,4.50
2017,05,26,14,13,3.80
2017,05,26,14,14,3.60
2017,05,26,14,15,5.00
2017,05,26,14,16,6.30
2017,05,26,14,17,6.80
2017,05,26,14,18,4.70
2017,05,26,14,19,3.50
2017,05,26,14,20,2.20
2017,05,26,14,21,6.00
2017,05,26,14,22,5.00
2017,05,26,14,23,6.40
2017,05,26,14,24,6.40
2017,05,26,14,25,4.50
2017,05,26,14,26,4.80
2017,05,26,14,27,3.20
2017,05,26,14,28,5.60
2017,05,26,14,29,6.20
2017,05,26,14,30,5.10
2017,05,26,14,31,2.50
2017,05,26,14,32,2.80
2017,05,26,14,33,5.40
2017,05,26,14,34,5.90
2017,05,26,14,35,2.20
2017,05,26,14,36,1.20
2017,05,26,14,37,2.90
2017,05,26,14,38,5.70
2017,05,26,14,39,4.30
2017,05,26,14,40,7.10
2017,05,26,14,41,5.10
2017,05,26,14,42,6.20
2017,05,26,14,43,4.80
2017,05,26,14,44,3.60
2017,05,26,14,45,5.20
2017,05,26,14,46,5.40
2017,05,26,14,47,2.80
2017,05,26,14,48,3.90
2017,05,26,14,49,7.20
2017,05,26,14,50,5.20
2017,05,26,14,51,3.10
2017,05,26,14,52,4.60
2017,05,26,14,53,6.30
2017,05,26,14,54,4.60
2017,05,26,14,55,2.30
2017,05,26,14,56,4.20
2017,05,26,14,57,6.40
2017,05,26,14,58,8.50
2017,05,26,14,59,6.60
2017,05,26,15,00,3.60
2017,05,26,15,01,5.30
2017,05,26,15,02,5.60
2017,05,26,15,03,5.10
2017,05,26,15,04,10.30
2017,05,26,15,05,9.00
2017,05,26,15,06,5.90
2017,05,26,15,07,5.60
2017,05,26,15,08,4.90
2017,05,26,15,09,6.40
2017,05,26,15,10,5.00
2017,05,26,15,11,7.30
2017,05,26,15,12,7.40
2017,05,26,15,13,3.50
2017,05,26,15,14,4.50
2017,05,26,15,15,4.00
2017,05,26,15,16,6.00
2017,05,26,15,17,3.60
2017,05,26,15,18,4.50
2017,05,26,15,19,6.50
2017,05,26,15,20,3.90
2017,05,26,15,21,1.90
2017,05,26,15,22,1.10
2017,05,26,15,23,5.30
2017,05,26,15,24,6.30
2017,05,26,15,25,6.90
2017,05,26,15,26,4.50
2017,05,26,15,27,5.70
2017,05,26,15,28,1.10
2017,05,26,15,29,4.50
2017,05,26,15,30,5.70
2017,05,26,15,31,6.80
2017,05,26,15,32,2.80
2017,05,26,15,33,5.30
2017,05,26,15,34,6.90
2017,05,26,15,35,6.80
2017,05,26,15,36,6.80
2017,05,26,15,37,5.50
2017,05,26,15,38,3.30
2017,05,26,15,39,5.80
2017,05,26,15,40,6.10
2017,05,26,15,41,5.40
2017,05,26,15,42,7.50
2017,05,26,15,43,6.40
2017,05,26,15,44,5.90
2017,05,26,15,45,6.10
2017,05,26,15,46,8.60
2017,05,26,15,47,5.00
2017,05,26,15,48,6.40
2017,05,26,15,49,5.00
2017,05,26,15,50,5.80
2017,05,26,15,51,6.00
2017,05,26,15,52,6.70
2017,05,26,15,53,7.30
2017,05,26,15,54,4.70
2017,05,26,15,55,5.10
2017,05,26,15,56,4.80
2017,05,26,15,57,8.30
2017,05,26,15,58,6.00
2017,05,26,15,59,6.70
2017,05,26,16,00,5.80
2017,05,26,16,01,4.70
2017,05,26,16,02,5.20
2017,05,26,16,03,3.80
2017,05,26,16,04,4.20
2017,05,26,16,05,2.10
2017,05,26,16,06,2.80
2017,05,26,16,07,4.10
2017,05,26,16,08,5.10
2017,05,26,16,09,3.70
2017,05,26,16,10,6.50
2017,05,26,16,11,5.00
2017,05,26,16,12,5.70
2017,05,26,16,13,4.40
2017,05,26,16,14,3.30
2017,05,26,16,15,4.40
2017,05,26,16,16,5.40
2017,05,26,16,17,6.20
2017,05,26,16,18,6.30
2017,05,26,16,19,5.30
2017,05,26,16,20,3.10
2017,05,26,16,21,3.10
2017,05,26,16,22,5.80
2017,05,26,16,23,3.30
2017,05,26,16,24,2.80
2017,05,26,16,25,5.10
2017,05,26,16,26,4.20
2017,05,26,16,27,4.30
2017,05,26,16,28,4.70
2017,05,26,16,29,2.50
2017,05,26,16,30,5.10
2017,05,26,16,31,4.90
2017,05,26,16,32,3.10
2017,05,26,16,33,6.10
2017,05,26,16,34,1.20
2017,05,26,16,35,3.10
2017,05,26,16,36,4.60
2017,05,26,16,37,3.00
2017,05,26,16,38,1.60
2017,05,26,16,39,0.00
2017,05,26,16,40,2.30
2017,05,26,16,41,5.60
2017,05,26,16,42,5.60
2017,05,26,16,43,4.90
2017,05,26,16,44,2.50
2017,05,26,16,45,5.50
2017,05,26,16,46,2.30
2017,05,26,16,47,3.40
2017,05,26,16,48,3.70
2017,05,26,16,49,2.50
2017,05,26,16,50,3.20
2017,05,26,16,51,3.80
2017,05,26,16,52,3.30
2017,05,26,16,53,4.70
2017,05,26,16,54,4.20
2017,05,26,16,55,5.70
2017,05,26,16,56,6.40
2017,05,26,16,57,4.50
2017,05,26,16,58,3.40
2017,05,26,16,59,2.40
2017,05,26,17,00,2.60
2017,05,26,17,01,4.70
2017,05,26,17,02,4.70
2017,05,26,17,03,3.70
2017,05,26,17,04,2.70
2017,05,26,17,05,3.80
2017,05,26,17,06,2.00
2017,05,26,17,07,3.80
2017,05,26,17,08,2.90
2017,05,26,17,09,0.80
2017,05,26,17,10,2.60
2017,05,26,17,11,2.40
2017,05,26,17,12,0.70
2017,05,26,17,13,1.00
2017,05,26,17,14,2.20
2017,05,26,17,15,1.10
2017,05,26,17,16,1.80
2017,05,26,17,17,1.90
2017,05,26,17,18,1.30
2017,05,26,17,19,2.70
2017,05,26,17,20,2.10
2017,05,26,17,21,2.60
2017,05,26,17,22,1.40
2017,05,26,17,23,3.10
2017,05,26,17,24,2.10
2017,05,26,17,25,2.30
2017,05,26,17,26,1.90
2017,05,26,17,27,4.30
2017,05,26,17,28,2.70
2017,05,26,17,29,2.40
2017,05,26,17,30,2.20
2017,05,26,17,31,3.10
2017,05,26,17,32,4.80
2017,05,26,17,33,3.50
2017,05,26,17,34,3.90
2017,05,26,17,35,4.40
2017,05,26,17,36,2.30
2017,05,26,17,37,3.90
2017,05,26,17,38,2.50
2017,05,26,17,39,2.60
2017,05,26,17,40,2.20
2017,05,26,17,41,4.70
2017,05,26,17,42,3.50
2017,05,26,17,43,4.70
2017,05,26,17,44,5.20
2017,05,26,17,45,1.80
2017,05,26,17,46,1.50
2017,05,26,17,47,2.90
2017,05,26,17,48,0.20
2017,05,26,17,49,1.70
2017,05,26,17,50,1.30
2017,05,26,17,51,2.00
2017,05,26,17,52,2.30
2017,05,26,17,53,2.70
2017,05,26,17,54,1.60
2017,05,26,17,55,1.50
2017,05,26,17,56,1.10
2017,05,26,17,57,0.80
2017,05,26,17,58,2.20
2017,05,26,17,59,1.60
2017,05,26,18,00,0.30
2017,05,26,18,01,2.10
2017,05,26,18,02,1.50
2017,05,26,18,03,1.30
2017,05,26,18,04,0.80
2017,05,26,18,05,0.80
2017,05,26,18,06,2.10